This demonstration page uses our WeatherBlox Daily Observations layout. Learn more.

Left ArrowRight Arrow

36.17497, -115.13722

Hourly Observations for April 12, 2020

Temp ( °F °C ) Dew Point ( °F °C ) Humidity (%) Winds ( mph kmh ) Pressure ( in mb ) Visibility ( mi km ) Precip ( " mm )
12:53 am 00:53 Clear 63 17.2 39 3.9 41 41 NNW 8 13 29.78 1009 10 16 N/A
1:53 am 01:53 Clear 61 16.1 39 3.9 44 44 N N/A 29.79 1009 10 16 N/A
2:53 am 02:53 Clear 60 15.6 39 3.9 46 46 NNW 3 6 29.79 1009 10 16 N/A
3:53 am 03:53 Clear 59 15 41 5 51 51 N N/A 29.81 1009 10 16 N/A
4:53 am 04:53 Clear 58 14.4 41 5 53 53 N 3 6 29.81 1009 10 16 N/A
5:53 am 05:53 Cloudy 57 13.9 42 5.6 58 58 NW 7 11 29.83 1010 10 16 N/A
6:53 am 06:53 Partly Cloudy 57 13.9 42 5.6 58 58 N N/A 29.86 1011 10 16 N/A
7:53 am 07:53 Sunny 60 15.6 44 6.7 56 56 N 3 6 29.88 1012 10 16 N/A
8:53 am 08:53 Sunny 63 17.2 43 6.1 48 48 NE 7 11 29.88 1012 10 16 N/A
9:53 am 09:53 Sunny 64 17.8 42 5.6 45 45 E 7 11 29.89 1012 10 16 N/A
10:53 am 10:53 Sunny 66 18.9 42 5.6 42 42 E 8 13 29.91 1013 10 16 N/A
11:53 am 11:53 Mostly Cloudy 70 21.1 43 6.1 38 38 ESE 7 11 29.89 1012 10 16 N/A
12:53 pm 12:53 Sunny 74 23.3 41 5 31 31 NE 5 7 29.86 1011 10 16 N/A
1:53 pm 13:53 Mostly Sunny 72 22.2 39 3.9 30 30 SSE 5 7 29.86 1011 10 16 N/A
2:53 pm 14:53 Partly Cloudy 71 21.7 40 4.4 32 32 SSW 9 15 29.85 1011 10 16 N/A
3:05 pm 15:05 Partly Cloudy with Nearby Thunderstorms 70 21.1 41 5 35 35 S 9 15 29.75 1008 10 16 N/A
3:40 pm 15:40 Mostly Cloudy 69 20.6 44 6.7 41 41 SW 12 19 29.75 1007 10 16 N/A
3:53 pm 15:53 Cloudy 69 20.6 44 6.7 41 41 WSW 9 15 29.84 1011 10 16 N/A
4:53 pm 16:53 Mostly Cloudy 71 21.7 39 3.9 31 31 N N/A 29.83 1010 10 16 N/A
5:53 pm 17:53 Cloudy with Light Rain 68 20 46 7.8 45 45 ESE 9 15 29.84 1011 8 13 0.00 0.00
6:53 pm 18:53 Cloudy 65 18.3 48 8.9 54 54 S 9 15 29.85 1011 10 16 0.00 0.00
7:53 pm 19:53 Cloudy with Light Rain 66 18.9 44 6.7 45 45 NW 9 15 29.87 1012 10 16 0.00 0.00
8:53 pm 20:53 Cloudy 66 18.9 41 5 40 40 N 6 9 29.86 1011 10 16 0.00 0.00
9:53 pm 21:53 Partly Cloudy 64 17.8 43 6.1 46 46 S 10 17 29.88 1012 10 16 N/A
10:53 pm 22:53 Clear 63 17.2 46 7.8 54 54 SSW 15 24 29.88 1012 10 16 N/A
11:53 pm 23:53 Clear 59 15 45 7.2 60 60 E 3 6 29.88 1012 10 16 N/A

Powered by AerisWeather